Location: Ambatokely
(18.4667°S, 46.4833°E)
Time: 08:48:33
(UTC+00:00)

Daily predictions for brighter satellites

Satellite Brightness Start Highest point End
(mag) Time Altitude Azimuth Time Altitude Azimuth Time Altitude Azimuth
COSMOS 2406 4.1 15:41:56 10° S 15:47:07 33° ESE 15:52:16 10° NE
Cosmos 405 Rocket 3.4 15:43:38 10° NNE 15:47:10 35° E 15:50:47 10° SSE
Cosmos 1300 Rocket 3.9 15:44:59 10° NNE 15:49:07 44° E 15:53:18 10° SSE
Delta 142 4.1 15:44:30 10° WSW 15:49:15 76° SSE 15:55:22 10° ENE
YAOGAN 6 3.0 15:46:03 10° S 15:49:32 65° WSW 15:53:00 10° NNW
Palapa 6 Rocket 3.2 15:47:41 10° WNW 15:53:05 72° NNE 15:57:28 10° E
Cosmos 1900 4.4 15:48:31 10° NNW 15:53:25 86° WSW 15:58:26 10° SSE
Intelsat 5-3 Rocket 3.5 15:53:43 10° NNW 15:55:34 14° NNE 15:57:01 10° NE
Cosmos 2297 3.7 15:54:32 10° N 16:00:03 61° ENE 16:05:37 10° SSE
Cosmos 921 Rocket 3.9 16:00:52 10° NNW 16:05:15 56° WSW 16:09:42 10° S
Okean 2 3.5 16:01:08 10° S 16:05:16 55° E 16:09:21 10° NNE
PSLV R/B 3.9 16:03:10 10° SSW 16:05:20 26° SE 16:06:58 14° E
S3M 4.0 16:00:13 10° N 16:06:19 90° WSW 16:12:31 10° S
Genesis I 3.7 16:04:19 10° N 16:07:44 34° ENE 16:11:11 10° SE
Cosmos 1939 Rocket 3.0 16:05:02 10° SSE 16:09:07 55° E 16:13:06 10° N
SAR-Lupe-2 3.5 16:05:50 10° NNE 16:09:24 79° ESE 16:13:00 10° S
Cosmos 1975 4.3 16:06:19 10° NNW 16:10:08 41° W 16:14:02 10° SSW
Okean 1 Rocket 4.1 16:07:02 10° NNE 16:10:47 27° E 16:14:35 10° SSE
ISS -2.7 16:08:25 10° N 16:11:14 25° NE 16:14:05 10° ESE
Cosmos 2082 Rocket 4.0 16:08:31 10° SSE 16:11:43 15° ESE 16:14:19 11° E
Meteor 1-4 Rocket 3.8 16:09:26 10° SSE 16:12:21 23° E 16:14:06 16° ENE
Meteor 1-12 Rocket 4.2 16:06:56 10° N 16:12:31 65° E 16:18:08 10° SSE
CZ-2D R/B 3.2 16:08:53 10° SSE 16:12:47 67° E 16:16:37 10° N
HJ-1C 4.2 16:11:35 10° SE 16:14:33 29° E 16:17:05 12° NNE
Atlas Centaur 2 4.0 16:09:00 10° NNW 16:15:35 26° NE 16:21:21 13° E
CZ-3 Stage 3 0.8 16:14:53 10° NW 16:16:44 37° NE 16:20:13 10° ESE
Centaur D-1AR AC-48 3.8 16:15:25 10° W 16:20:40 75° S 16:55:00 10° E
Centaur D-1AR AC-48 3.8 16:15:25 10° W 16:20:40 75° S 16:55:01 10° E
Centaur D-1AR AC-48 3.8 16:15:25 10° W 16:20:41 75° S 16:55:01 10° E
Aurora 2 Rocket 2.4 16:18:15 10° W 16:21:37 53° SSW 16:24:38 10° ESE
ATLAS CENTAUR Rocket 3.2 16:03:04 10° WSW 16:21:46 71° SSE 16:25:30 16° E
Cosmos 967 Rocket 4.4 16:15:58 10° SSW 16:22:13 89° ESE 16:28:13 11° NNE
Cosmos 2151 Rocket 4.0 16:19:15 10° NNW 16:23:37 66° W 16:28:04 10° S
Cosmos 1378 3.0 16:20:22 10° S 16:24:06 77° E 16:27:33 11° N
FREGAT/IRIS 4.4 16:22:51 10° SE 16:23:52 15° ESE 16:23:52 15° ESE
Cosmos 489 Rocket 4.4 16:18:52 10° N 16:25:09 71° ENE 16:31:27 10° SSE
Meteor 2-21 4.4 16:20:22 10° S 16:26:30 73° E 16:32:31 10° N
ADEOS Rocket 4.5 16:22:03 10° NNW 16:27:28 37° W 16:33:26 10° SSW
Cosmos 389 Rocket 2.5 16:26:39 10° S 16:30:17 84° W 16:33:25 13° N
DASH 3.4 16:31:54 10° W 16:35:29 26° NW 16:36:36 20° N
Cosmos 1544 4.5 16:33:17 10° NNW 16:36:45 40° W 16:40:15 10° SSW
Cosmos 1437 Rocket 4.5 16:35:10 10° SE 16:37:37 18° ESE 16:37:37 18° ESE
SJ-6B 4.5 16:35:12 10° SE 16:36:51 18° ESE 16:36:51 18° ESE
GPS 2-15 Rocket1 4.3 16:37:05 10° WNW 16:41:04 28° NNW 16:42:43 22° NNE
Intelsat 5-2 Rocket 4.1 16:39:44 10° WSW 16:43:53 81° SSE 16:51:46 21° ENE
Cosmos 2369 Rocket 2.7 16:42:31 20° NNE 16:45:48 37° ENE 16:51:01 10° SE
Cosmos 1025 Rocket 3.0 16:43:49 10° S 16:48:11 63° E 16:49:55 34° NNE
SJ-11-01 4.2 16:46:01 10° SSE 16:50:40 59° E 16:53:17 25° N
ATLAS CENTAUR R/B 2.2 16:48:07 10° SW 16:52:41 56° WNW 16:55:27 24° N
CZ-2C R/B 4.4 16:48:38 10° SE 16:51:22 20° ESE 16:51:22 20° ESE
Cosmos 2315 Rocket 4.0 16:46:57 10° N 16:53:10 81° W 16:59:25 10° S
Iridium 4 Rocket 4.4 16:48:59 10° S 16:54:48 59° W 17:00:33 10° NNW
ARGOS 3.6 16:56:54 10° SSE 17:01:57 38° E 17:01:58 38° E
Cosmos 1709 Rocket 4.0 16:57:42 10° S 17:04:06 69° E 17:07:01 34° NNE
H-2A R/B 2.3 16:59:15 10° SSE 17:04:30 49° E 17:05:17 45° NE
Cosmos 1943 Rocket 2.0 17:02:31 10° NNW 17:08:02 82° ENE 17:13:34 10° SSE
Cosmos 1833 Rocket 2.6 17:04:00 10° SSW 17:09:38 82° WNW 17:11:47 40° N
Cosmos 1707 3.4 17:07:15 10° S 17:10:11 43° SE 17:10:11 43° SE
NATO 3D Rocket 3.6 17:07:21 10° WSW 17:12:02 61° S 17:13:28 42° ESE
SPOT 3 Rocket 3.8 17:08:16 10° SSE 17:12:56 47° E 17:12:56 47° E
Ariane Rocket 4.1 17:13:47 10° S 17:18:38 44° WSW 17:23:26 10° NW
Cosmos 468 Rocket 3.9 17:20:31 62° NNE 17:21:17 75° ENE 17:26:37 10° SSE
Hubble Space Telescope 2.8 17:19:02 10° SW 17:22:16 21° S 17:23:20 19° SSE
MOS 1 Rocket 3.4 17:22:04 68° NE 17:22:36 75° ESE 17:27:42 10° S
CZ-2C R/B 3.2 17:21:57 31° NNW 17:24:22 56° W 17:29:50 10° SSW
Cosmos 1455 Rocket 4.2 17:36:41 37° SSE 17:36:41 37° SSE 17:39:28 10° S
Cosmos 1777 Rocket 3.9 17:30:04 10° SSW 17:35:19 87° W 17:35:19 87° W
Nadezhda 1 Rocket 4.1 17:36:13 55° ESE 17:36:13 55° ESE 17:41:41 10° SSE
Delta 7925 Rocket 4.0 17:35:38 10° WSW 17:40:22 50° SSE 17:40:36 50° SSE
Palapa 6 Rocket 4.0 17:37:10 10° W 17:40:40 43° SW 17:40:40 43° SW
ISS -0.5 17:45:57 10° W 17:47:55 14° SW 17:49:52 10° S
Meteor 1-22 Rocket 4.4 17:49:05 72° SE 17:49:05 72° SE 17:54:32 10° S
Cosmos 2263 4.4 17:51:14 65° WNW 17:51:42 68° WSW 17:57:23 10° S
Cosmos 2082 Rocket 2.9 17:50:24 10° SSW 17:55:50 45° WNW 17:56:11 45° WNW
Atlas Centaur 2 3.1 17:56:44 10° NW 18:04:07 65° NNW 18:04:07 65° NNW
Cosmos 2074 Rocket 4.2 18:03:02 10° S 18:08:13 64° S 18:08:13 64° S
USA 267 4.2 18:05:15 10° SE 18:08:40 34° SE 18:08:40 34° SE
CZ-3B Rocket 3.3 18:17:22 10° W 18:36:28 68° W 18:36:28 68° W
Resurs 01 Rocket 4.4 18:40:48 10° SSW 18:41:50 15° SSW 18:41:50 15° SSW
FALCON 9 R/B 4.2 18:53:38 10° WSW 19:01:13 69° SSE 20:09:25 10° ENE
ATLAS 2A CENTAUR R/B 4.3 18:45:59 10° WNW 19:38:01 85° SSW 19:38:41 82° SSE
Cosmos 2322 Rocket 4.4 22:30:34 20° SSE 22:30:34 20° SSE 22:32:12 10° SSE
SL-16 R/B 4.4 22:41:40 18° S 22:41:40 18° S 22:43:12 10° S
H-2A R/B 4.3 22:41:38 20° S 22:42:17 21° SSE 22:49:47 10° ESE
NOSS 3-4 (A) 4.4 23:05:02 57° SSW 23:05:02 57° SSW 23:11:49 10° SSE
NOSS 3-4 (C) 4.4 23:05:07 58° SSW 23:05:07 58° SSW 23:11:55 10° SSE
ADEOS II 4.4 23:09:47 16° SSW 23:09:47 16° SSW 23:10:45 10° SSW
COSMOS 2428 3.7 23:26:23 42° E 23:26:23 42° E 23:31:18 10° SE
IDEFIX/ARIANE 42P 3.6 23:31:04 39° E 23:31:39 41° ESE 23:36:36 10° S
Milstar 3 3.8 23:28:36 55° WNW 23:32:22 86° NNE 23:41:09 10° ESE
CZ-3B R/B 4.0 23:33:12 39° N 23:35:32 42° NNE 23:45:43 10° E
Atlas Centaur 2 3.7 23:33:11 21° SW 23:36:10 30° S 23:40:46 10° ESE
ATLAS 2AS CENTAUR R/B 4.3 23:42:16 17° SW 23:42:16 17° SW 23:45:06 10° SSW
Cosmos 2360 Rocket 3.7 23:43:06 24° SW 23:43:06 24° SW 23:46:01 10° S
Cosmos 2322 4.3 23:43:59 47° SSW 23:43:59 47° SSW 23:48:16 10° S
SL-16 R/B 2.8 23:41:55 10° S 23:47:23 54° SW 23:47:23 54° SW
Cosmos 1269 Rocket 4.4 23:51:48 58° S 23:51:48 58° S 23:56:07 10° S
NOSS 3-2 (A) 4.2 23:46:16 10° S 23:51:50 44° ESE 23:57:01 10° NE
Cosmos 1452 Rocket 3.7 23:49:29 10° S 23:54:46 70° ESE 23:55:09 66° ENE
PSLV R/B 4.3 23:55:35 51° ESE 23:55:35 51° ESE 23:59:49 10° S
